Meteo Giornale » Osservazioni meteo Stati Uniti (USA) » Kenosha
ore: 14:53 - Osservazioni Meteo Kenosha
Lat. 42° 35' N Lon. 87° 56' W Alt. 226 metri s.l.m.
30 °C
Sereno
Temp. 24 Ore
22 °C
30 °C
Ovest/Sud-Ovest
24 Km/h
Dew point 22 °C
Umidità 62 %
Visibilità 10 Km
Il sole sorge alle ore 06:15
Il sole tramonta alle ore 19:28
| Data e Ora | Cielo e Fenomeni | T °C | DP °C | Um. % | Pres. hPa | Vis. km | Vento km/h | |
|---|---|---|---|---|---|---|---|---|
| Oggi h: 14:53 | Sereno | 30 | 22 | 62 | 1012 | 10 | O/SO 24 | |
| Oggi h: 13:53 | Sereno | 30 | 21 | 58 | 1012 | 10 | SO 25.9 | |
| Oggi h: 12:53 | Sereno | 28 | 21 | 65 | 1013 | 10 | SO 20.3 | |
| Oggi h: 11:53 | Sereno | 27 | 19 | 61 | 1013 | 10 | S/SO 25.9 | |
| Oggi h: 10:53 | Sereno | 26 | 20 | 69 | 1014 | 10 | S/SO 27.8 | |
| Oggi h: 09:53 | Coperto | 23 | 20 | 83 | 1014 | 10 | S/SO 16.7 | |
| Oggi h: 08:53 | Coperto | 23 | 19 | 78 | 1014 | 10 | S 22.2 | |
| Oggi h: 07:53 | Pioggia | 22 | 19 | 83 | 1014 | 8 | S 18.5 | |
| Oggi h: 06:53 | Pioggia | 22 | 19 | 83 | 1014 | 10 | S 16.7 | |
| Oggi h: 06:41 | Temporale nelle vicinanze Pioggia | 22 | 19 | 83 | 1014 | 10 | S 13 | |
| Oggi h: 06:01 | Temporale Foschia | 22 | 19 | 83 | 1015 | 5 | O 7.4 | |
| Oggi h: 05:53 | Temporale nelle vicinanze Pioggia | 22 | 20 | 88 | 1015 | 13 | N/NO 7.4 | |
| Oggi h: 05:46 | Temporale nelle vicinanze Pioggia | 22 | 20 | 88 | 1015 | 14 | N 0 | |
| Oggi h: 05:31 | Temporale | 22 | 19 | 83 | 1014 | 14 | N 0 | |
| Oggi h: 05:16 | Temporale nelle vicinanze Pioggia | 22 | 19 | 83 | 1014 | 10 | O 7.4 | |
| Oggi h: 04:53 | Coperto | 22 | 19 | 83 | 1013 | 10 | S/SO 7.4 | |
| Oggi h: 03:53 | Sereno | 22 | 19 | 83 | 1014 | 10 | S 9.3 | |
| Oggi h: 02:53 | Poco Nuvoloso | 23 | 20 | 83 | 1014 | 10 | S 7.4 | |
| Oggi h: 01:53 | Sereno | 23 | 20 | 83 | 1014 | 10 | S 7.4 | |
| Oggi h: 00:53 | Sereno | 24 | 20 | 78 | 1014 | 10 | S 13 | |
| Ieri h: 23:53 | Sereno | 23 | 21 | 88 | 1014 | 10 | S/SO 16.7 | |
| Ieri h: 22:53 | Sereno | 23 | 21 | 88 | 1015 | 10 | N 5.5 | |
| Ieri h: 21:53 | Sereno | 23 | 21 | 88 | 1015 | 10 | SO 14.8 | |
| Ieri h: 20:53 | Sereno | 23 | 21 | 88 | 1015 | 10 | SO 13 | |
| Ieri h: 19:53 | Poco Nuvoloso | 22 | 21 | 94 | 1014 | 10 | SO 22.2 | |
| Ieri h: 18:53 | Molto Nuvoloso | 22 | 21 | 94 | 1014 | 10 | S 16.7 | |
| Ieri h: 17:53 | Pioggia | 22 | 21 | 94 | 1014 | 14 | S/SO 24 | |
| Ieri h: 16:53 | Molto Nuvoloso | 23 | 21 | 88 | 1014 | 10 | SO 18.5 | |
| Ieri h: 16:18 | Pioggia | 23 | 21 | 88 | 1014 | 10 | S/SO 20.3 | |
| Ieri h: 15:53 | Temporale nelle vicinanze Pioggia | 22 | 21 | 94 | 1014 | 10 | SO 20.3 | |



